EHI
0 0 0 0 0 0 0 0 0 0 0 0 0 0 0 0 0 0 0 0 0 0 0 0 0 0 0 0 0 0 0 0 0 0 0 0 0 0 0 0 0 0 0
0 0 0 0 0 0 0 0 0 0 0 0 0 0 0 0 0 0 0 0 0 0 0 0 0 0 0 0 0 0 0 0 0 0 0 0 0 0 0 0 0 0 0
0 0 0 0 0 0 0 0 0 0 0 0 0 0 0 0 0 0 0 0 0 0 0 0 0 0 0 0 0 0 0 0 0 0 0 0 0 0 0 0 0 0 0
0 0 0 0 0 0 0 0 0 0 0 0 0 0 0 0 0 0 0 0 0 0 0 0 0 0 0 0 0 0 0 0 0 0 0 0 0 0 0 0 0 0 0
0 0 0 0 0 0 0 0 0 0 0 0 0 0 0 0 0 0 0 0 0 0 0 0 0 0 0 0 0 0 0 0 0 0 0 0 0 0 0 0 0 0 0
0 0 0 0 0 0 0 0 0 0 0 0 0 0 0 0 0 0 0 0 0 0 0 0 0 0 0 0 0 0 0 0 0 0 0 0 0 0 0 0 0 0 0
0 0 0 0 0 0 0 0 0 0 0 0 0 0 0 0 0 0 0 0 0 0 0 0 0 0 0 0 0 0 0 0 0 0 0 0 0 0 0 0 0 0 0
0 0 0 0 0 0 0 0 0 0 0 0 0 0 0 0 0 0 0 0 0 0 0 0 0 0 0 0 0 0 0 0 0 0 0 0 0 0 0 0 0 0 0
0 0 0 0 0 0 0 0 0 0 0 0 0 0 0 0 0 0 0 0 0 0 0 0 0 0 0 0 0 0 0 0 0 0 0 0 0 0 0 0 0 0 0
0 0 0 0 0 0 0 0 0 0 0 0 0 0 0 0 0 0 0 0 0 0 0 0 0 0 0 0 0 0 0 0 0 0 0 0 0 0 0 0 0 0 0
0 0 0 0 0 0 0 0 0 0 0 0 0 0 0 0 0 0 0 0 0 0 0 0 0 0 0 0 0 0 0 0 0 0 0 0 0 0 0 0 0 0 0
0 0 0 0 0 0 0 0 0 0 0 0 0 0 0 0 0 0 0 0 0 0 0 0 0 0 0 0 0 0 0 0 0 0 0 0 0 0 0 0 0 0 0
0 0 0 0 0 0 0 0 0 0 0 0 0 0 0 0 0 0 0 0 0 0 0 0 0 0 0 0 0 0 0 0 0 0 0 0 0 0 0 0 0 0 0
0 0 0 0 0 0 0 0 0 0 0 0 0 0 0 0 0 0 0 0 0 0 0 0 0 0 0 0 0 0 0 0 0 0 0 0 0 0 0 0 0 0 0
0 0 0 0 0 0 0 0 0 0 0 0 0 0 0 0 0 0 0 0 0 0 0 0 0 0 0 0 0 0 0 0 0 0 0 0 0 0 0 0 0 0 0
0 0 0 0 0 0 0 0 0 0 0 0 0 0 0 0 0 0 0 0 0 0 0 0 0 0 0 0 0 0 0 0 0 0 0 0 0 0 0 0 0 0 0
0 0 0 0 0 0 0 0 0 0 0 0 0 0 0 0 0 0 0 0 0 0 0 0 0 0 0 0 0 0 0 0 0 0 0 0 0 0 0 0 0 0 0
0 0 0 0 0 0 0 0 0 0 0 0 0 0 0 0 0 0 0 0 0 0 0 0 0 0 0 0 0 0 0 0 0 0 0 0 0 0 0 0 0 0 0
0 0 0 0 0 0 0 0 0 0 0 0 0 0 0 0 0 0 0 0 0 0 0 0 0 0 0 0 0 0 0 0 0 0 0 0 0 0 0 0 0 0 0
0 0 0 0 0 0 0 0 0 0 0 0 0 0 0 0 0 0 0 0 0 0 0 0 0 0 0 0 0 0 0 0 0 0 0 0 0 0 0 0 0 0 0
0 0 0 0 0 0 0 0 0 0 0 0 0 0 0 0 0 0 0 0 0 0 0 0 0 0 0 0 0 0 0 0 0 0 0 0 0 0 0 0 0 0 0
0 0 0 0 0 0 0 0 0 0 0 0 0 0 0 0 0 0 0 0 0 0 0 0 0 0 0 0 0 0 0 0 0 0 0 0 0 0 0 0 0 0 0
0 0 0 0 0 0 0 0 0 0 0 0 0 0 0 0 0 0 0 0 0 0 0 0 0 0 0 0 0 0 0 0 0 0 0 0 0 0 0 0 0 0 0
0 0 0 0 0 0 0 0 0 0 0 0 0 0 0 0 0 0 0 0 0 0 0 0 0 0 0 0 0 0 0 0 0 0 0 0 0 0 0 0 0 0 0
0 0 0 0 0 0 0 0 0 0 0 0 0 0 0 0 0 0 0 0 0 0 0 0 0 0 0 0 0 0 0 0 0 0 0 0 0 0 0 0 0 0 0
0 0 0 0 0 0 0 0 0 0 0 0 0 0 0 0 0 0 0 0 0 0 0 0 0 0 0 0 0 0 0 0 0 0 0 0 0 0 0 0 0 0 0
Wind_Speed
7 6 5 5 5 4 4 4 4 4 4 3 3 3 3 3 3 3 2 4 4 4 3 2 2 2 2 2 1 1 1 0 0 1 1 2 2 3 3 4 4 4 4
7 7 6 6 5 5 5 5 5 4 3 3 3 3 3 3 3 3 2 2 3 3 2 2 2 2 1 1 0 1 2 2 2 2 2 2 2 3 3 4 4 4 5
8 7 7 6 6 5 5 4 4 3 3 3 3 3 3 3 3 3 3 2 2 2 1 1 1 1 1 0 1 2 2 2 2 2 2 2 3 3 4 4 5 5 5
9 7 6 6 6 5 5 4 4 3 3 3 2 2 2 2 3 3 3 2 2 1 1 1 1 1 0 0 1 2 2 3 3 2 2 2 3 3 4 4 5 5 6
9 7 6 6 6 5 4 5 3 3 3 3 3 2 1 2 2 3 3 3 3 2 1 1 2 3 2 1 1 2 2 2 3 3 2 3 3 3 4 5 5 5 6
9 7 6 6 6 5 4 4 4 3 3 3 2 1 1 1 2 2 3 3 3 3 2 2 2 2 3 2 2 2 1 1 1 2 1 2 3 3 4 5 5 5 6
8 8 6 7 7 6 6 6 4 4 2 2 2 1 1 1 1 2 2 2 3 3 3 3 2 2 1 3 4 3 2 1 1 1 1 1 2 3 4 5 5 6 6
8 8 8 7 7 6 6 6 4 3 2 3 3 2 0 1 1 1 1 2 3 2 3 3 3 3 2 1 2 4 3 2 2 2 2 2 2 3 4 5 6 6 6
8 8 8 7 7 7 7 7 6 6 4 3 3 4 4 4 2 1 2 2 2 2 2 2 3 3 3 2 1 2 4 3 2 3 2 2 3 3 4 5 6 7 7
6 7 7 7 7 5 6 6 6 5 6 4 2 2 2 3 3 2 1 1 2 2 3 3 3 3 3 2 1 2 3 3 3 3 3 3 4 4 5 5 6 7 7
6 7 7 7 6 5 6 6 5 5 4 5 4 2 2 1 2 3 3 2 1 1 2 3 3 2 2 2 1 1 2 2 2 2 3 4 5 6 6 6 6 7 7
4 6 6 6 6 5 6 6 6 6 5 5 4 3 4 3 4 3 4 3 3 2 1 2 3 2 2 2 2 2 2 2 1 1 3 4 5 6 6 6 6 7 7
4 6 5 6 5 5 5 5 5 6 6 6 5 4 4 4 3 3 3 3 3 2 2 2 2 3 3 2 2 3 2 3 2 2 3 4 5 6 6 7 7 7 7
4 5 5 5 6 6 5 5 4 5 5 6 6 6 4 4 3 4 4 4 3 2 2 3 2 3 3 3 3 4 2 3 3 3 3 3 4 5 5 6 7 7 7
2 4 5 5 5 6 6 6 5 5 5 6 6 6 5 4 3 3 3 4 5 4 5 4 3 3 3 3 4 3 2 3 4 3 3 3 3 3 4 5 6 6 7
2 3 3 4 5 5 5 5 5 5 5 5 4 6 5 4 3 3 4 3 3 4 4 3 3 3 4 3 5 3 2 4 4 4 3 2 2 3 3 4 5 6 6
2 3 3 4 4 5 5 5 6 5 6 6 5 6 7 5 5 4 3 3 3 3 3 2 1 2 3 4 3 2 2 2 1 4 4 3 2 1 2 3 5 5 6
1 2 2 3 4 4 5 6 6 7 7 8 7 7 7 5 6 5 4 5 4 4 4 4 2 2 3 4 4 3 2 2 1 3 4 3 2 1 1 2 3 5 6
1 1 2 3 3 4 4 5 6 6 7 8 8 8 8 7 7 5 6 5 4 4 3 4 4 2 2 3 3 2 2 1 1 3 4 3 3 2 1 1 2 4 5
2 2 1 2 2 2 3 4 5 5 6 6 6 7 7 8 9 8 6 6 5 5 4 4 4 3 2 3 3 3 2 2 2 1 2 2 3 2 1 1 1 2 4
2 2 2 2 2 2 3 4 4 5 5 5 5 6 6 8 10 9 7 7 7 6 5 5 4 4 4 4 4 3 3 2 1 1 1 1 1 0 1 0 0 1 2
3 2 2 2 3 3 5 7 6 5 5 6 6 5 6 8 10 13 13 12 12 9 8 6 5 6 6 5 4 4 4 3 3 2 2 1 1 1 1 1 2 1 1
4 3 3 3 4 5 8 9 8 5 5 5 6 5 5 6 9 7 10 12 12 14 12 8 7 7 7 7 7 5 5 4 3 3 3 2 1 2 2 2 4 2 1
4 4 4 4 5 6 9 9 9 5 5 5 6 6 7 6 7 8 6 6 6 6 7 6 6 6 6 7 8 7 6 4 2 1 3 2 2 2 1 1 4 3 2
4 4 4 5 5 6 9 9 8 4 4 6 6 6 7 7 11 12 8 7 5 3 5 7 7 7 9 11 10 6 6 4 2 2 2 3 2 1 1 1 2 4 4
4 5 5 5 6 6 9 10 8 4 5 5 5 6 10 10 13 14 9 9 8 6 5 5 5 5 5 7 12 8 7 5 3 3 4 3 3 2 1 1 1 1 1
Wind_Direction
165 166 168 168 170 170 174 176 181 191 202 213 214 203 200 194 186 183 192 192 187 187 190 209 238 248 248 231 221 188 133 75 52 32 356 343 333 323 317 317 318 313 311
168 170 171 173 176 178 180 182 186 190 203 201 202 200 197 185 181 177 176 188 187 179 185 209 239 244 252 246 225 143 115 82 55 35 22 9 351 334 324 319 319 316 310
172 171 172 177 182 179 179 181 188 186 194 194 197 195 181 169 162 168 169 172 178 176 169 194 217 234 261 240 137 108 114 95 71 53 46 37 19 359 347 333 325 324 321
175 171 174 182 182 178 178 182 185 179 190 187 191 190 174 161 156 159 160 164 160 151 155 131 70 41 72 113 138 110 97 96 71 65 63 42 21 5 357 348 340 333 325
180 175 178 181 178 179 182 188 185 176 180 183 179 171 168 165 162 154 157 164 158 151 150 118 84 60 51 45 119 109 86 89 82 72 62 45 28 17 9 358 349 340 332
182 178 177 180 180 181 182 183 177 175 177 174 159 146 165 179 159 161 166 159 149 146 138 120 96 63 62 61 82 92 71 73 81 56 44 35 21 12 0 357 349 342 337
183 181 179 180 182 187 185 180 171 173 178 155 122 90 360 2 186 183 165 153 148 145 135 126 116 95 65 60 59 58 26 11 355 339 339 334 356 0 358 357 350 345 345
187 186 182 184 184 183 181 181 167 166 179 171 150 138 202 300 277 193 178 170 160 144 135 130 122 115 99 77 43 43 18 349 329 326 325 331 349 354 352 350 348 352 358
189 188 186 182 184 183 187 187 178 174 182 197 175 159 173 213 212 242 217 185 170 159 149 138 134 130 121 102 66 26 19 8 345 340 332 342 352 353 355 3 8 9 8
186 186 185 185 185 185 188 190 184 179 172 185 195 200 185 164 164 191 250 200 176 179 178 164 150 139 129 118 89 50 22 358 359 358 6 20 17 11 10 10 8 11 8
189 191 184 182 183 187 190 190 184 182 182 185 184 179 183 184 169 168 202 207 202 210 187 173 161 152 141 130 128 62 34 1 345 352 19 34 29 21 16 17 13 6 0
194 197 188 186 187 187 192 194 191 188 191 191 194 187 184 185 192 183 192 194 202 207 181 169 166 163 152 140 139 111 80 44 2 31 50 46 35 25 17 10 4 359 353
198 199 194 192 191 193 196 195 195 198 194 194 201 209 211 213 186 179 177 186 194 195 178 183 184 171 163 152 151 133 110 89 66 54 55 53 46 37 22 7 -0 356 352
198 195 193 196 197 194 196 195 200 208 200 201 208 208 211 215 199 187 179 170 180 203 205 204 183 181 167 162 170 143 141 125 100 82 73 66 56 41 25 10 0 357 355
190 189 192 198 200 200 198 195 204 208 204 208 209 209 210 210 203 195 183 176 172 194 217 201 191 185 167 159 168 153 157 163 139 125 108 89 68 43 24 11 1 358 356
191 178 184 195 203 205 202 199 206 207 208 215 210 208 211 201 196 193 187 184 182 182 207 189 188 173 170 165 170 156 173 161 159 155 144 128 85 48 23 12 3 0 357
188 187 197 200 207 210 208 208 212 205 211 216 210 208 213 197 194 193 187 179 183 173 189 169 144 151 159 166 160 155 153 140 168 182 172 159 138 76 26 19 8 6 5
206 198 212 219 220 218 215 214 217 214 213 214 211 208 211 198 196 191 189 189 188 177 171 174 168 164 170 174 162 167 168 156 171 198 190 180 175 155 66 30 12 9 11
350 237 204 223 228 226 225 226 225 226 224 222 215 210 208 195 202 197 195 192 185 176 165 163 168 161 152 157 148 164 164 160 195 206 202 201 192 180 165 55 19 13 12
6 348 306 255 245 243 240 234 228 229 232 231 225 218 210 203 206 198 197 194 180 175 166 164 165 161 157 152 152 166 179 188 202 202 205 199 197 185 204 171 52 19 12
4 349 333 321 296 264 248 246 238 233 231 234 232 225 217 211 209 202 199 193 183 180 173 177 175 166 172 168 181 171 176 164 215 199 178 202 155 68 342 290 61 355 9
353 348 333 318 302 288 276 268 262 243 236 233 234 230 223 215 213 212 210 201 190 185 185 183 186 190 189 180 165 165 154 157 215 204 162 207 163 195 233 251 245 252 19
349 342 327 309 292 282 278 272 264 258 243 239 234 228 229 222 212 209 211 207 205 204 195 183 188 194 181 180 166 165 172 174 193 176 146 194 184 210 233 239 225 216 192
341 331 318 307 299 295 292 285 277 266 252 248 239 230 227 224 211 200 195 197 199 201 198 192 193 189 182 176 174 171 166 142 100 132 149 177 191 206 211 250 244 213 203
331 321 313 306 299 297 296 292 289 267 256 255 248 236 228 226 220 208 194 190 190 198 198 187 185 186 186 180 163 137 142 146 163 198 182 165 171 167 194 242 262 229 210
317 315 311 305 297 294 295 294 291 270 261 261 255 241 232 229 224 212 198 188 194 190 168 162 165 170 170 177 175 166 163 159 154 194 191 161 154 143 193 261 259 304 279